Weather in Novyj Vasjugan

Russia / Tomsk District     58°34′37″N   76°29′56″E
temp.,
°C
wind,
m/s
gust,
m/s
humid.,
%
clouds,
%
prec.,
mm/h
press.,
hPa
HPBL,
m
6 may, thu
thu601:00+11s3136311 0.0 1005363
04:00+9sse311705 0.0 1003214
07:00+9s413685 0.0 1001303
10:00+16s51150100 0.0 998468
13:00+22s6143895 0.0 9961335
16:00+25sw6163299 0.0 9943183
19:00+15wnw61254100 0.1 9991389
22:00+12wnw510535 0.0 1003896
7 may, fri
fri701:00+9w411630 0.0 1005754
04:00+6w410745 0.0 1006478
07:00+6wsw410760 0.0 1008607
10:00+9w6105496 0.0 10081813
13:00+9w6104994 0.1 10101976
16:00+11w6113999 0.0 10112174
19:00+13w613395 0.0 10122351
22:00+10w412461 0.0 1013552
8 may, sat
sat801:00+9wsw41360100 0.0 1014560
04:00+11w41267100 0.0 1013776
07:00+11wnw5136976 0.0 10151343
10:00+12wnw4117159 0.0 10151298
13:00+14nw51254100 0.0 10161664
16:00+16wnw5124976 0.0 10162041
19:00+17nw4114331 0.0 10171984
22:00+10nne2456100 0.0 101955
9 may, sun
sun901:00+7e3770100 0.0 1020205
04:00+4ese247957 0.0 102188
07:00+5ese137695 0.0 1022104
10:00+11se225396 0.0 1021417
13:00+16s224397 0.0 1020802
16:00+17wsw124572 0.0 1020789
19:00+18n1245100 0.0 1019796
22:00+12n22695 0.0 102011
10 may, mon
mon1001:00+8ne37820 0.0 1020130
04:00+5ne37880 0.0 1021163
07:00+5ne38860 0.0 1021244
10:00+11ne34600 0.0 1021707
13:00+14nne444598 0.0 10201702
16:00+16n553789 0.0 10192480
19:00+12nne565369 0.0 10201611
22:00+8nne387499 0.1 1021490